Flag for U.S.A. Weather past 2 weeks in Paradise, Nevada, U.S.A.

Now
91 °F

Scattered clouds.


Feels Like: 87 °F
Forecast: 64 / 91 °F
Wind: 16 mph from South

Location: McCarran International Airport

Current Time: May 26, 2015 at 7:04:20 PM

Latest Report: May 26, 2015 at 5:56 PM


Visibility: 10 mi

Pressure: 29.69 "Hg

Humidity: 13%

Dew point: 33 °F

Location of ParadiseLocation

Historic Weather in Paradise — Graph

°F

Paradise temperature yesterday

Maximum temperature yesterday: 86 °F (at 3:56 PM)
Minimum temperature yesterday: 63 °F (at 3:56 AM)
Average temperature yesterday: 75 °F

Past Weeks' High & Low Weather Summary

 TemperatureHumidityPressure
High91 °F (May 26, 2:56 PM)75% (May 25, 4:56 AM)29.93 "Hg (May 25, 4:56 AM)
Low53 °F (May 15, 5:56 AM)5% (May 13, 10:56 PM)29.57 "Hg (May 14, 4:56 PM)
Average72 °F29%29.75 "Hg
* Reported May 11 5:56 PM — May 26 5:56 PM, Paradise, Weather by CustomWeather, © 2015

Note: Actual official high and low records may vary slightly from our data, if they occured in-between our weather recording intervals... More about our weather records

Advertising

Paradise weather history for previous 24 hours

 ConditionsComfort  
Time TempWeatherWind HumidityBarometerVisibility
5:56 PM
Tue, May 26
91 °FScattered clouds.16 mph13%29.69 "Hg10 mi
4:56 PM90 °FScattered clouds.13 mph12%29.69 "Hg10 mi
3:56 PM90 °FScattered clouds.15 mph12%29.71 "Hg10 mi
2:56 PM91 °FScattered clouds.3 mph12%29.73 "Hg10 mi
1:56 PM90 °FScattered clouds.12 mph13%29.76 "Hg10 mi
12:56 PM88 °FScattered clouds.6 mph16%29.79 "Hg10 mi
11:56 AM86 °FPassing clouds.3 mph19%29.81 "Hg10 mi
10:56 AM83 °FPassing clouds.6 mph22%29.82 "Hg10 mi
9:56 AM81 °FPassing clouds.No wind24%29.83 "Hg10 mi
8:56 AM79 °FPassing clouds.3 mph26%29.83 "Hg10 mi
7:56 AM76 °FPassing clouds.6 mph29%29.83 "Hg10 mi
6:56 AM73 °FPassing clouds.7 mph32%29.82 "Hg10 mi
5:56 AM72 °FPassing clouds.10 mph31%29.80 "Hg10 mi
4:56 AM73 °FPassing clouds.10 mph30%29.78 "Hg10 mi
3:56 AM74 °FPassing clouds.13 mph27%29.77 "Hg10 mi
2:56 AM77 °FPassing clouds.14 mph24%29.76 "Hg10 mi
1:56 AM77 °FPassing clouds.10 mph26%29.76 "Hg10 mi
12:56 AM78 °FPassing clouds.8 mph25%29.76 "Hg10 mi
11:56 PM
Mon, May 25
79 °FPassing clouds.14 mph23%29.75 "Hg10 mi
10:56 PM80 °FPassing clouds.12 mph26%29.74 "Hg10 mi
9:56 PM83 °FPassing clouds.7 mph23%29.72 "Hg10 mi
8:56 PM83 °FPartly cloudy.No wind23%29.72 "Hg10 mi
7:56 PM85 °FScattered clouds.7 mph22%29.71 "Hg10 mi
Weather by CustomWeather, © 2015

See weather overviewHow to use our weather pages